User: anonymous   Login
Location: Unspecified
(0.0000°N, 0.0000°E)
Time: 10:55:20
(UTC+01:00)
Language:

Timation 2 Rocket - Orbit

View from above orbital plane
View from above orbital plane
View from above satellite
View from above satellite

Ground track
Ground track

The orbit data is extracted from the following two-line orbital elements,

1 04159U 69082AB  16346.11335775  .00000012  00000-0  65166-4 0  9997
2 04159  69.9606 183.6808 0117372 322.7979  36.5022 13.72363527362278
Epoch (UTC): 11 December 2016 02:43:14
Eccentricity: 0.0117372
inclination: 69.9606°
perigee height: 904 km
apogee height: 1077 km
right ascension of ascending node: 183.6808°
argument of perigee: 322.7979°
revolutions per day: 13.72363527
mean anomaly at epoch: 36.5022°
orbit number at epoch: 36227

The dashed part of the orbit path shows where the satellite is in the earth's shadow,  

DLR